Rick Husband Amarillo International Airport
KAMA : now visible

Airfield :











YOU CAN JOIN US ON...

 
LOGIN :

Register | Disclaimer

   EN    FR    IT 

 









Legend :    VFR   Marginal VFR   IFR   Intensive IFR   Very Intensive IFR
Visi :
Ceiling :
>= 8 km
>= 3000ft
5 to 8 km
1000 to 3000 ft
1500m to 5 km
500 to 1000 ft
800 to 1500m
200 to 500 ft
< 800m
< 200 ft
Symbols :   Thunderstorms  Fog  Heavy snow  Heavy precipitations  Wind > 20 kt






- Airport Elevation : 3607 ft
- IATA code : AMA


KAMA - Rick Husband Amarillo International

CURRENT METAR :
  • 100453Z AUTO 07015KT 10SM CLR 13/05 A3006 RMK AO2 SLP152 T01330050

EXPIRED METARs :
  • 100353Z 07017G22KT 10SM CLR 14/05 A3000 RMK AO2 RAB05E25 SLP130 P0000 T01440050
  • 100253Z 09016KT 10SM FEW060 SCT070 BKN100 16/04 A3000 RMK AO2 LTG DSNT SW SLP133 T01560044 53010

TAF KAMA
Valid from the 10 at 06:00 until the 11 at 06:00 UTC


100520Z 1006/1106 08016KT P6SM BKN100
FM101100 08009KT P6SM BKN012
FM101800 12010KT P6SM BKN030
FM110000 13015G24KT P6SM SCT100
KZAB FIR / North America



MET'MAP, your aeronautical weather chart ! - Copyright ORBIFLY December 2007 - Disclaimer

ORBIFLY MET'MAP TEAM :

Programming & Development : Alexandra Zaïnal
Concept & original design : Baudouin d'Aumeries
Assistance for programming : Marc-Olivier Méhu
Technical & hardware support : Manuel Goepfert

Contact : metmap@orbifly.com




SOURCES & CREDITS :

   NOAA       Earth
Advisory